Regional Weather Roundup
Issued by NWS

Home | Current Version | Previous Version | Text Only | Print | Product List | Glossary On
Versions: 1 2 3 4 5 6 7 8 9 10 11 12 13 14 15 16 17 18 19 20 21 22 23 24 25 26 27 28 29 30 31 32 33 34 35 36 37 38 39 40 41 42 43 44 45 46 47 48 49 50
000
ASUS43 KTOP 192359
RWRKS

WEATHER ROUNDUP FOR KANSAS
NATIONAL WEATHER SERVICE GOODLAND KS
700 PM CDT TUE AUG 19 2014

NOTE:  "FAIR" INDICATES FEW OR NO CLOUDS BELOW 12,000 FEET WITH NO
SIGNIFICANT WEATHER AND/OR OBSTRUCTIONS TO VISIBILITY.

KSZ001>006-013>018-027>032-041>047-200100-
NORTHWEST KANSAS

CITY           SKY/WX    TMP DP  RH WIND       PRES   REMARKS
GOODLAND       MOSUNNY   90  49  24 SE20G35   29.77F
6HR MIN TEMP:  85; 6HR MAX TEMP:  96;

HAYS           SUNNY     93  61  33 S18       29.77S
HILL CITY      SUNNY     95  57  27 S18G25    29.74F
6HR MIN TEMP:  85; 6HR MAX TEMP:  98;

RUSSELL        SUNNY     93  60  33 S20       29.75F
6HR MIN TEMP:  88; 6HR MAX TEMP:  96;

$$

KSZ061>065-074>080-084>089-200100-
SOUTHWEST KANSAS

CITY           SKY/WX    TMP DP  RH WIND       PRES   REMARKS
DODGE CITY     MOSUNNY   90  57  32 S18       29.81F
6HR MIN TEMP:  88; 6HR MAX TEMP:  93;

ELKHART          N/A     90  56  31 SE14        N/A
GARDEN CITY    SUNNY     91  56  30 S18G26    29.79F
6HR MIN TEMP:  90; 6HR MAX TEMP:  95;

GREAT BEND     SUNNY     93  61  33 S20G25    29.77F
LIBERAL        SUNNY     93  55  27 SE18G25   29.83S
$$

KSZ066>073-081>083-090>101-200100-
SOUTHEAST KANSAS

CITY           SKY/WX    TMP DP  RH WIND       PRES   REMARKS
CHANUTE        MOSUNNY   93  67  42 S14       29.80F HX  96
6HR MIN TEMP:  92; 6HR MAX TEMP:  98;

COFFEYVILLE    SUNNY     92  67  43 S9        29.79F HX  95
6HR MIN TEMP:  91; 6HR MAX TEMP:  96;

HUTCHINSON     SUNNY     94  63  35 S14       29.78F HX  95
6HR MIN TEMP:  92; 6HR MAX TEMP:  98;

MEDICINE LODGE   N/A     94  62  34 S13G21    29.77F
NEWTON         SUNNY     91  64  40 S14       29.83S
PARSONS        SUNNY     91  68  46 S6        29.81F HX  95
6HR MIN TEMP:  91; 6HR MAX TEMP:  97;

WICHITA INTL   MOSUNNY   92  64  39 S14       29.78F
6HR MIN TEMP:  91; 6HR MAX TEMP:  96;

WICHITA JABRA  SUNNY     90  67  46 S13       29.79F
6HR MIN TEMP:  89; 6HR MAX TEMP:  94;

WINFIELD       SUNNY     91  67  44 S10       29.81S
6HR MIN TEMP:  91; 6HR MAX TEMP:  95;

$$

KSZ007>012-019>026-033>040-048>060-102>105-200100-
NORTHEAST KANSAS

CITY           SKY/WX    TMP DP  RH WIND       PRES   REMARKS
CONCORDIA      SUNNY     87  71  58 SE6       29.77F
6HR MIN TEMP:  86; 6HR MAX TEMP:  90;

EMPORIA        MOSUNNY   89  66  46 S8        29.78S
6HR MIN TEMP:  89; 6HR MAX TEMP:  96;

LAWRENCE       SUNNY     92  74  55 E6        29.77F HX 101
6HR MIN TEMP:  90; 6HR MAX TEMP:  99;

MANHATTAN      SUNNY     93  64  38 SE6       29.75F
6HR MIN TEMP:  90; 6HR MAX TEMP:  96;

OLATHE IND     MOSUNNY   91  71  51 SE9       29.79F HX  97
6HR MIN TEMP:  88; 6HR MAX TEMP:  95;

OLATHE EXE     SUNNY     89  72  56 S7        29.79S HX  96
6HR MIN TEMP:  86; 6HR MAX TEMP:  93;

SALINA         PTSUNNY   93  68  43 S13       29.75F HX  97
6HR MIN TEMP:  89; 6HR MAX TEMP:  97;

TOPEKA BILLARD SUNNY     94  61  33 SW6       29.77S
6HR MIN TEMP:  89; 6HR MAX TEMP:  96;

TOPEKA FORBES  SUNNY     93  62  35 S3        29.77F
6HR MIN TEMP:  90; 6HR MAX TEMP:  97;

$$


USA.gov is the U.S. government's official web portal to all federal, state and local government web resources and services.